Time,TemperatureF,DewpointF,PressureIn,WindDirection,WindDirectionDegrees,WindSpeedMPH,WindSpeedGustMPH,Humidity,HourlyPrecipIn,Conditions,Clouds,dailyrainin,SoftwareType,DateUTC
2013-03-06 00:00:00,34.9,32.5,29.99,NW,320,0.0,0.0,91,0.00,,,0.00,WeatherTracker,2013-03-06 05:00:00,
2013-03-06 00:01:00,34.9,32.5,29.99,NW,320,0.0,0.0,91,0.00,,,0.00,WeatherTracker,2013-03-06 05:01:00,
2013-03-06 00:06:00,35.1,32.7,29.99,NW,320,0.0,0.0,91,0.00,,,0.00,WeatherTracker,2013-03-06 05:06:00,
2013-03-06 00:11:00,35.4,33.0,29.99,NNE,19,2.0,0.0,91,0.00,,,0.00,WeatherTracker,2013-03-06 05:11:00,
2013-03-06 00:16:00,35.9,33.3,29.98,NNE,19,0.0,0.0,90,0.00,,,0.00,WeatherTracker,2013-03-06 05:16:00,
2013-03-06 00:21:00,36.4,33.5,29.98,NNE,28,2.0,0.0,89,0.00,,,0.00,WeatherTracker,2013-03-06 05:21:00,
2013-03-06 00:26:00,36.9,33.7,29.98,NNE,16,0.0,0.0,88,0.00,,,0.00,WeatherTracker,2013-03-06 05:26:00,
2013-03-06 00:31:00,37.1,33.6,29.98,NNE,20,0.0,0.0,87,0.00,,,0.00,WeatherTracker,2013-03-06 05:31:00,
2013-03-06 00:36:00,37.4,33.9,29.98,NE,34,0.0,0.0,87,0.00,,,0.00,WeatherTracker,2013-03-06 05:36:00,
2013-03-06 00:41:00,37.6,33.8,29.98,NNE,14,0.0,0.0,86,0.00,,,0.00,WeatherTracker,2013-03-06 05:41:00,
2013-03-06 00:46:00,37.7,33.9,29.98,NE,49,4.0,0.0,86,0.00,,,0.00,WeatherTracker,2013-03-06 05:46:00,
2013-03-06 00:51:00,37.6,33.8,29.98,NE,45,2.0,0.0,86,0.00,,,0.00,WeatherTracker,2013-03-06 05:51:00,
2013-03-06 00:56:00,37.5,33.7,29.98,NE,44,3.0,0.0,86,0.00,,,0.00,WeatherTracker,2013-03-06 05:56:00,
2013-03-06 01:01:00,37.4,33.6,29.98,NNE,14,3.0,0.0,86,0.00,,,0.00,WeatherTracker,2013-03-06 06:01:00,
2013-03-06 01:06:00,37.4,34.2,29.98,NNE,25,1.0,0.0,88,0.00,,,0.00,WeatherTracker,2013-03-06 06:06:00,
2013-03-06 01:11:00,37.4,34.5,29.98,NNE,24,1.0,0.0,89,0.00,,,0.00,WeatherTracker,2013-03-06 06:11:00,
2013-03-06 01:16:00,37.3,34.4,29.98,North,9,0.0,0.0,89,0.00,,,0.00,WeatherTracker,2013-03-06 06:16:00,
2013-03-06 01:21:00,37.1,34.4,29.98,North,360,0.0,0.0,90,0.00,,,0.00,WeatherTracker,2013-03-06 06:21:00,
2013-03-06 01:26:00,37.0,34.6,29.98,North,11,0.0,0.0,91,0.00,,,0.00,WeatherTracker,2013-03-06 06:26:00,
2013-03-06 01:31:00,36.8,34.4,29.98,NE,43,4.0,0.0,91,0.00,,,0.00,WeatherTracker,2013-03-06 06:31:00,
2013-03-06 01:36:00,36.8,34.7,29.98,NNE,16,3.0,0.0,92,0.00,,,0.00,WeatherTracker,2013-03-06 06:36:00,
2013-03-06 01:41:00,36.8,34.7,29.98,NE,39,1.0,0.0,92,0.00,,,0.00,WeatherTracker,2013-03-06 06:41:00,
2013-03-06 01:46:00,36.8,35.0,29.98,NNE,33,0.0,0.0,93,0.00,,,0.00,WeatherTracker,2013-03-06 06:46:00,
2013-03-06 01:51:00,36.9,35.1,29.98,West,277,1.0,0.0,93,0.00,,,0.00,WeatherTracker,2013-03-06 06:51:00,
2013-03-06 01:56:00,36.9,35.1,29.98,NNE,23,0.0,0.0,93,0.00,,,0.00,WeatherTracker,2013-03-06 06:56:00,
2013-03-06 02:02:00,37.0,35.2,29.98,NE,34,0.0,0.0,93,0.00,,,0.00,WeatherTracker,2013-03-06 07:02:00,
2013-03-06 02:07:00,37.0,35.2,29.98,NE,55,0.0,0.0,93,0.00,,,0.00,WeatherTracker,2013-03-06 07:07:00,
2013-03-06 02:12:00,37.1,35.3,29.98,North,10,1.0,0.0,93,0.00,,,0.00,WeatherTracker,2013-03-06 07:12:00,
2013-03-06 02:17:00,37.1,35.0,29.98,North,10,4.0,0.0,92,0.00,,,0.00,WeatherTracker,2013-03-06 07:17:00,
2013-03-06 02:22:00,37.1,35.0,29.98,NNE,15,2.0,0.0,92,0.00,,,0.00,WeatherTracker,2013-03-06 07:22:00,
2013-03-06 02:27:00,37.1,34.7,29.98,NNE,20,3.0,0.0,91,0.00,,,0.00,WeatherTracker,2013-03-06 07:27:00,
2013-03-06 02:32:00,37.2,35.1,29.98,NNE,26,4.0,0.0,92,0.00,,,0.00,WeatherTracker,2013-03-06 07:32:00,
2013-03-06 02:37:00,37.3,35.2,29.97,NE,42,8.0,0.0,92,0.00,,,0.00,WeatherTracker,2013-03-06 07:37:00,
2013-03-06 02:42:00,37.4,35.3,29.98,NNE,22,0.0,0.0,92,0.00,,,0.00,WeatherTracker,2013-03-06 07:42:00,
2013-03-06 02:47:00,37.5,35.1,29.98,NNE,18,4.0,0.0,91,0.00,,,0.00,WeatherTracker,2013-03-06 07:47:00,
2013-03-06 02:52:00,37.6,35.2,29.98,North,5,0.0,0.0,91,0.00,,,0.00,WeatherTracker,2013-03-06 07:52:00,
2013-03-06 02:57:00,37.7,35.3,29.98,NE,38,3.0,0.0,91,0.00,,,0.00,WeatherTracker,2013-03-06 07:57:00,
2013-03-06 03:02:00,37.8,35.4,29.98,North,351,0.0,0.0,91,0.00,,,0.00,WeatherTracker,2013-03-06 08:02:00,
2013-03-06 03:07:00,37.8,35.4,29.98,ENE,62,1.0,0.0,91,0.00,,,0.00,WeatherTracker,2013-03-06 08:07:00,
2013-03-06 03:12:00,37.9,35.2,29.98,NNE,32,3.0,0.0,90,0.00,,,0.00,WeatherTracker,2013-03-06 08:12:00,
2013-03-06 03:17:00,37.8,35.4,29.99,NNE,25,3.0,0.0,91,0.00,,,0.00,WeatherTracker,2013-03-06 08:17:00,
2013-03-06 03:22:00,37.7,35.3,29.98,NNE,15,0.0,0.0,91,0.00,,,0.00,WeatherTracker,2013-03-06 08:22:00,
2013-03-06 03:27:00,37.7,35.3,29.99,NNE,13,0.0,0.0,91,0.00,,,0.00,WeatherTracker,2013-03-06 08:27:00,
2013-03-06 03:32:00,37.7,35.3,29.99,North,5,0.0,0.0,91,0.00,,,0.00,WeatherTracker,2013-03-06 08:32:00,
2013-03-06 03:37:00,37.7,35.3,29.99,ENE,57,5.0,0.0,91,0.00,,,0.00,WeatherTracker,2013-03-06 08:37:00,
2013-03-06 03:42:00,37.8,35.4,29.99,NNE,20,3.0,0.0,91,0.00,,,0.00,WeatherTracker,2013-03-06 08:42:00,
2013-03-06 03:47:00,37.8,35.4,29.99,NNE,20,3.0,0.0,91,0.00,,,0.00,WeatherTracker,2013-03-06 08:47:00,
2013-03-06 03:52:00,37.8,35.4,29.99,NE,49,1.0,0.0,91,0.00,,,0.00,WeatherTracker,2013-03-06 08:52:00,
2013-03-06 03:57:00,37.7,35.3,29.99,East,93,0.0,0.0,91,0.00,,,0.00,WeatherTracker,2013-03-06 08:57:00,
2013-03-06 04:02:00,37.6,35.2,29.99,NNE,23,4.0,0.0,91,0.00,,,0.00,WeatherTracker,2013-03-06 09:02:00,
2013-03-06 04:08:00,37.5,35.4,29.99,NNE,15,0.0,0.0,92,0.00,,,0.00,WeatherTracker,2013-03-06 09:08:00,
2013-03-06 04:13:00,37.4,35.3,29.99,NE,50,3.0,0.0,92,0.00,,,0.00,WeatherTracker,2013-03-06 09:13:00,
2013-03-06 04:18:00,37.3,35.2,29.99,NNE,17,6.0,0.0,92,0.00,,,0.00,WeatherTracker,2013-03-06 09:18:00,
2013-03-06 04:23:00,37.3,35.2,29.99,North,360,3.0,0.0,92,0.00,,,0.00,WeatherTracker,2013-03-06 09:23:00,
2013-03-06 04:28:00,37.3,35.5,29.99,ENE,59,7.0,0.0,93,0.00,,,0.00,WeatherTracker,2013-03-06 09:28:00,
2013-03-06 04:33:00,37.3,35.5,29.99,SE,129,1.0,0.0,93,0.00,,,0.00,WeatherTracker,2013-03-06 09:33:00,
2013-03-06 04:38:00,37.3,35.5,29.99,ESE,122,0.0,0.0,93,0.00,,,0.00,WeatherTracker,2013-03-06 09:38:00,
2013-03-06 04:43:00,37.3,35.5,29.99,NE,48,0.0,0.0,93,0.00,,,0.00,WeatherTracker,2013-03-06 09:43:00,
2013-03-06 04:48:00,37.3,35.5,29.99,NNE,19,3.0,0.0,93,0.00,,,0.00,WeatherTracker,2013-03-06 09:48:00,
2013-03-06 04:53:00,37.5,35.7,29.99,NNE,21,3.0,0.0,93,0.00,,,0.00,WeatherTracker,2013-03-06 09:53:00,
2013-03-06 04:58:00,37.6,35.5,29.99,ESE,116,8.0,0.0,92,0.00,,,0.00,WeatherTracker,2013-03-06 09:58:00,
2013-03-06 05:03:00,37.8,35.4,29.99,ESE,112,7.0,0.0,91,0.00,,,0.00,WeatherTracker,2013-03-06 10:03:00,
2013-03-06 05:08:00,37.9,35.2,29.99,NNE,13,4.0,0.0,90,0.00,,,0.00,WeatherTracker,2013-03-06 10:08:00,
2013-03-06 05:13:00,37.7,35.0,29.99,East,80,9.0,0.0,90,0.00,,,0.00,WeatherTracker,2013-03-06 10:13:00,
2013-03-06 05:18:00,37.6,34.9,29.99,NNE,20,10.0,0.0,90,0.00,,,0.00,WeatherTracker,2013-03-06 10:18:00,
2013-03-06 05:23:00,37.6,34.9,29.99,ENE,71,3.0,0.0,90,0.00,,,0.00,WeatherTracker,2013-03-06 10:23:00,
2013-03-06 05:28:00,37.6,34.9,29.99,North,11,7.0,0.0,90,0.00,,,0.00,WeatherTracker,2013-03-06 10:28:00,
2013-03-06 05:33:00,37.5,34.8,29.99,NNE,14,2.0,0.0,90,0.00,,,0.00,WeatherTracker,2013-03-06 10:33:00,
2013-03-06 05:38:00,37.4,34.7,29.99,NNE,22,0.0,0.0,90,0.00,,,0.00,WeatherTracker,2013-03-06 10:38:00,
2013-03-06 05:43:00,37.5,34.8,29.99,NNE,16,7.0,0.0,90,0.00,,,0.00,WeatherTracker,2013-03-06 10:43:00,
2013-03-06 05:48:00,37.6,34.9,29.99,North,10,5.0,0.0,90,0.00,,,0.00,WeatherTracker,2013-03-06 10:48:00,
2013-03-06 05:54:00,37.7,35.0,29.98,ENE,59,2.0,0.0,90,0.00,,,0.00,WeatherTracker,2013-03-06 10:54:00,
2013-03-06 05:59:00,37.7,35.0,29.98,NNE,12,3.0,0.0,90,0.00,,,0.00,WeatherTracker,2013-03-06 10:59:00,
2013-03-06 06:04:00,37.7,35.0,29.98,NNE,22,8.0,0.0,90,0.00,,,0.00,WeatherTracker,2013-03-06 11:04:00,
2013-03-06 06:09:00,37.9,35.0,29.98,ESE,103,3.0,0.0,89,0.00,,,0.00,WeatherTracker,2013-03-06 11:09:00,
2013-03-06 06:14:00,38.0,34.8,29.99,ESE,109,10.0,0.0,88,0.00,,,0.00,WeatherTracker,2013-03-06 11:14:00,
2013-03-06 06:19:00,37.7,34.8,29.99,East,90,3.0,0.0,89,0.00,,,0.00,WeatherTracker,2013-03-06 11:19:00,
2013-03-06 06:24:00,37.5,34.8,29.99,NE,38,7.0,0.0,90,0.00,,,0.00,WeatherTracker,2013-03-06 11:24:00,
2013-03-06 06:29:00,37.5,34.8,29.99,NNE,24,4.0,0.0,90,0.00,,,0.00,WeatherTracker,2013-03-06 11:29:00,
2013-03-06 06:34:00,37.6,35.2,30.00,NNE,23,5.0,0.0,91,0.00,,,0.00,WeatherTracker,2013-03-06 11:34:00,
2013-03-06 06:39:00,37.5,35.1,30.00,NE,51,5.0,0.0,91,0.00,,,0.00,WeatherTracker,2013-03-06 11:39:00,
2013-03-06 06:44:00,37.5,35.4,30.00,NNE,22,1.0,0.0,92,0.00,,,0.00,WeatherTracker,2013-03-06 11:44:00,
2013-03-06 06:49:00,37.3,35.2,30.01,NNE,21,4.0,0.0,92,0.00,,,0.00,WeatherTracker,2013-03-06 11:49:00,
2013-03-06 06:54:00,37.2,35.1,30.00,SE,134,2.0,0.0,92,0.00,,,0.00,WeatherTracker,2013-03-06 11:54:00,
2013-03-06 06:59:00,37.3,35.2,30.01,East,88,1.0,0.0,92,0.00,,,0.00,WeatherTracker,2013-03-06 11:59:00,
2013-03-06 07:04:00,37.5,35.4,30.01,East,88,1.0,0.0,92,0.00,,,0.00,WeatherTracker,2013-03-06 12:04:00,
2013-03-06 07:09:00,37.6,35.5,30.01,ESE,121,1.0,0.0,92,0.00,,,0.00,WeatherTracker,2013-03-06 12:09:00,
2013-03-06 07:14:00,37.7,35.3,30.02,NNE,24,4.0,0.0,91,0.00,,,0.00,WeatherTracker,2013-03-06 12:14:00,
2013-03-06 07:19:00,37.8,35.4,30.02,East,80,1.0,0.0,91,0.00,,,0.00,WeatherTracker,2013-03-06 12:19:00,
2013-03-06 07:24:00,37.7,35.3,30.02,East,99,2.0,0.0,91,0.00,,,0.00,WeatherTracker,2013-03-06 12:24:00,
2013-03-06 07:29:00,37.7,35.3,30.02,East,92,2.0,0.0,91,0.00,,,0.00,WeatherTracker,2013-03-06 12:29:00,
2013-03-06 07:34:00,37.8,35.4,30.02,ENE,72,8.0,0.0,91,0.00,,,0.00,WeatherTracker,2013-03-06 12:34:00,
2013-03-06 07:39:00,37.6,35.2,30.02,NE,34,4.0,0.0,91,0.00,,,0.00,WeatherTracker,2013-03-06 12:39:00,
2013-03-06 07:44:00,37.5,35.4,30.02,ENE,61,7.0,0.0,92,0.00,,,0.00,WeatherTracker,2013-03-06 12:44:00,
2013-03-06 07:49:00,37.4,35.0,30.02,NW,304,0.0,0.0,91,0.00,,,0.00,WeatherTracker,2013-03-06 12:49:00,
2013-03-06 07:54:00,37.4,35.0,30.02,NNE,28,2.0,0.0,91,0.00,,,0.00,WeatherTracker,2013-03-06 12:54:00,
2013-03-06 08:00:00,37.4,35.0,30.02,ENE,61,1.0,0.0,91,0.00,,,0.00,WeatherTracker,2013-03-06 13:00:00,
2013-03-06 08:05:00,37.6,34.9,30.02,NE,53,3.0,0.0,90,0.00,,,0.00,WeatherTracker,2013-03-06 13:05:00,
2013-03-06 08:10:00,37.8,34.9,30.02,East,80,9.0,0.0,89,0.00,,,0.00,WeatherTracker,2013-03-06 13:10:00,
2013-03-06 08:15:00,38.1,34.6,30.01,NNE,30,3.0,0.0,87,0.00,,,0.00,WeatherTracker,2013-03-06 13:15:00,
2013-03-06 08:20:00,38.3,34.5,30.02,East,96,7.0,0.0,86,0.00,,,0.00,WeatherTracker,2013-03-06 13:20:00,
2013-03-06 08:25:00,38.6,34.2,30.01,NE,56,5.0,0.0,84,0.00,,,0.00,WeatherTracker,2013-03-06 13:25:00,
2013-03-06 08:30:00,38.7,34.0,30.01,East,90,5.0,0.0,83,0.00,,,0.00,WeatherTracker,2013-03-06 13:30:00,
2013-03-06 08:35:00,38.9,33.9,30.01,ENE,58,2.0,0.0,82,0.00,,,0.00,WeatherTracker,2013-03-06 13:35:00,
2013-03-06 08:40:00,39.0,34.0,30.01,North,360,21.0,0.0,82,0.00,,,0.00,WeatherTracker,2013-03-06 13:40:00,
2013-03-06 08:45:00,38.9,34.5,30.02,SSE,152,9.0,0.0,84,0.00,,,0.00,WeatherTracker,2013-03-06 13:45:00,
2013-03-06 08:50:00,38.4,34.6,30.02,East,92,1.0,0.0,86,0.00,,,0.00,WeatherTracker,2013-03-06 13:50:00,
2013-03-06 08:55:00,38.3,33.9,30.02,East,88,7.0,0.0,84,0.00,,,0.00,WeatherTracker,2013-03-06 13:55:00,
2013-03-06 09:00:00,38.3,33.3,30.02,ESE,103,4.0,0.0,82,0.00,,,0.00,WeatherTracker,2013-03-06 14:00:00,
2013-03-06 09:05:00,38.4,33.4,30.02,ENE,68,2.0,0.0,82,0.00,,,0.00,WeatherTracker,2013-03-06 14:05:00,
2013-03-06 09:10:00,38.4,33.7,30.02,NNW,346,0.0,0.0,83,0.00,,,0.00,WeatherTracker,2013-03-06 14:10:00,
2013-03-06 09:15:00,38.5,33.8,30.02,East,92,6.0,0.0,83,0.00,,,0.00,WeatherTracker,2013-03-06 14:15:00,
2013-03-06 09:20:00,38.4,33.4,30.03,East,83,5.0,0.0,82,0.00,,,0.00,WeatherTracker,2013-03-06 14:20:00,
2013-03-06 09:25:00,38.3,32.4,30.03,NE,44,4.0,0.0,79,0.00,,,0.00,WeatherTracker,2013-03-06 14:25:00,
2013-03-06 09:30:00,38.6,33.0,30.03,NE,36,1.0,0.0,80,0.00,,,0.00,WeatherTracker,2013-03-06 14:30:00,
2013-03-06 09:35:00,38.6,33.3,30.04,North,9,4.0,0.0,81,0.00,,,0.00,WeatherTracker,2013-03-06 14:35:00,
2013-03-06 09:40:00,38.1,33.1,30.04,NE,41,5.0,0.0,82,0.00,,,0.00,WeatherTracker,2013-03-06 14:40:00,
2013-03-06 09:45:00,37.9,32.6,30.04,NNE,19,5.0,0.0,81,0.00,,,0.00,WeatherTracker,2013-03-06 14:45:00,
2013-03-06 09:50:00,38.0,32.7,30.05,NE,55,8.0,0.0,81,0.00,,,0.00,WeatherTracker,2013-03-06 14:50:00,
2013-03-06 09:55:00,38.1,32.2,30.04,ENE,67,7.0,0.0,79,0.00,,,0.00,WeatherTracker,2013-03-06 14:55:00,
2013-03-06 10:01:00,38.5,30.9,30.04,North,9,11.0,0.0,74,0.00,,,0.00,WeatherTracker,2013-03-06 15:01:00,
2013-03-06 10:06:00,38.8,30.6,30.04,ESE,110,7.0,0.0,72,0.00,,,0.00,WeatherTracker,2013-03-06 15:06:00,
2013-03-06 10:11:00,38.9,30.7,30.04,East,88,2.0,0.0,72,0.00,,,0.00,WeatherTracker,2013-03-06 15:11:00,
2013-03-06 10:16:00,39.0,30.4,30.03,NE,44,6.0,0.0,71,0.00,,,0.00,WeatherTracker,2013-03-06 15:16:00,
2013-03-06 10:21:00,38.9,30.7,30.03,ESE,115,3.0,0.0,72,0.00,,,0.00,WeatherTracker,2013-03-06 15:21:00,
2013-03-06 10:26:00,38.7,30.8,30.02,East,96,13.0,0.0,73,0.00,,,0.00,WeatherTracker,2013-03-06 15:26:00,
2013-03-06 10:31:00,38.6,30.0,30.03,ENE,72,1.0,0.0,71,0.00,,,0.00,WeatherTracker,2013-03-06 15:31:00,
2013-03-06 10:36:00,38.7,30.5,30.02,NE,35,2.0,0.0,72,0.00,,,0.00,WeatherTracker,2013-03-06 15:36:00,
2013-03-06 10:41:00,38.7,30.5,30.02,East,100,2.0,0.0,72,0.00,,,0.00,WeatherTracker,2013-03-06 15:41:00,
2013-03-06 10:46:00,38.7,30.8,30.02,ENE,74,7.0,0.0,73,0.00,,,0.00,WeatherTracker,2013-03-06 15:46:00,
2013-03-06 10:51:00,38.7,31.1,30.02,NW,306,4.0,0.0,74,0.00,,,0.00,WeatherTracker,2013-03-06 15:51:00,
2013-03-06 10:56:00,38.7,31.1,30.02,ESE,103,4.0,0.0,74,0.00,,,0.00,WeatherTracker,2013-03-06 15:56:00,
2013-03-06 11:01:00,38.8,31.2,30.02,East,98,5.0,0.0,74,0.00,,,0.00,WeatherTracker,2013-03-06 16:01:00,
2013-03-06 11:06:00,38.8,31.2,30.02,East,88,7.0,0.0,74,0.00,,,0.00,WeatherTracker,2013-03-06 16:06:00,
2013-03-06 11:11:00,38.8,31.2,30.02,NE,41,1.0,0.0,74,0.00,,,0.00,WeatherTracker,2013-03-06 16:11:00,
2013-03-06 11:16:00,38.9,31.7,30.02,NNE,13,2.0,0.0,75,0.00,,,0.00,WeatherTracker,2013-03-06 16:16:00,
2013-03-06 11:21:00,39.0,31.8,30.02,NE,45,6.0,0.0,75,0.00,,,0.00,WeatherTracker,2013-03-06 16:21:00,
2013-03-06 11:26:00,38.8,31.9,30.02,ESE,103,9.0,0.0,76,0.00,,,0.00,WeatherTracker,2013-03-06 16:26:00,
2013-03-06 11:31:00,38.8,32.2,30.01,NNE,28,4.0,0.0,77,0.00,,,0.00,WeatherTracker,2013-03-06 16:31:00,
2013-03-06 11:36:00,38.8,32.5,30.02,East,94,0.0,0.0,78,0.00,,,0.00,WeatherTracker,2013-03-06 16:36:00,
2013-03-06 11:41:00,38.7,32.8,30.01,East,92,7.0,0.0,79,0.00,,,0.00,WeatherTracker,2013-03-06 16:41:00,
2013-03-06 11:46:00,38.7,32.4,30.01,NNE,30,2.0,0.0,78,0.00,,,0.00,WeatherTracker,2013-03-06 16:46:00,
2013-03-06 11:52:00,39.0,32.1,30.01,NE,39,7.0,0.0,76,0.00,,,0.00,WeatherTracker,2013-03-06 16:52:00,
2013-03-06 11:57:00,39.3,33.0,30.01,ESE,114,2.0,0.0,78,0.00,,,0.00,WeatherTracker,2013-03-06 16:57:00,
2013-03-06 12:02:00,39.4,33.4,30.01,North,360,8.0,0.0,79,0.00,,,0.00,WeatherTracker,2013-03-06 17:02:00,
2013-03-06 12:07:00,38.9,33.0,30.02,NNE,30,4.0,0.0,79,0.00,,,0.00,WeatherTracker,2013-03-06 17:07:00,
2013-03-06 12:12:00,38.9,33.3,30.02,ENE,68,1.0,0.0,80,0.00,,,0.00,WeatherTracker,2013-03-06 17:12:00,
2013-03-06 12:17:00,38.6,33.3,30.02,NNE,17,14.0,0.0,81,0.00,,,0.00,WeatherTracker,2013-03-06 17:17:00,
2013-03-06 12:22:00,37.9,34.1,30.02,NNE,30,0.0,0.0,86,0.00,,,0.00,WeatherTracker,2013-03-06 17:22:00,
2013-03-06 12:27:00,37.4,33.9,30.02,North,9,2.0,0.0,87,0.00,,,0.00,WeatherTracker,2013-03-06 17:27:00,
2013-03-06 12:32:00,37.2,34.3,30.02,NNE,26,1.0,0.0,89,0.00,,,0.00,WeatherTracker,2013-03-06 17:32:00,
2013-03-06 12:37:00,37.4,34.5,30.02,North,355,2.0,0.0,89,0.00,,,0.00,WeatherTracker,2013-03-06 17:37:00,
2013-03-06 12:42:00,38.0,35.1,30.01,NE,46,0.0,0.0,89,0.00,,,0.00,WeatherTracker,2013-03-06 17:42:00,
2013-03-06 12:47:00,38.4,34.0,30.01,NNE,13,7.0,0.0,84,0.00,,,0.00,WeatherTracker,2013-03-06 17:47:00,
2013-03-06 12:52:00,38.2,33.5,30.01,NE,39,9.0,0.0,83,0.00,,,0.00,WeatherTracker,2013-03-06 17:52:00,
2013-03-06 12:57:00,38.3,34.2,30.01,NE,54,2.0,0.0,85,0.00,,,0.00,WeatherTracker,2013-03-06 17:57:00,
2013-03-06 13:02:00,38.1,33.7,30.01,East,100,13.0,0.0,84,0.00,,,0.00,WeatherTracker,2013-03-06 18:02:00,
2013-03-06 13:07:00,37.7,33.9,30.01,WNW,300,4.0,0.0,86,0.00,,,0.00,WeatherTracker,2013-03-06 18:07:00,
2013-03-06 13:12:00,37.7,33.9,30.01,NE,51,8.0,0.0,86,0.00,,,0.00,WeatherTracker,2013-03-06 18:12:00,
2013-03-06 13:17:00,37.9,33.8,30.00,NNE,17,3.0,0.0,85,0.00,,,0.00,WeatherTracker,2013-03-06 18:17:00,
2013-03-06 13:22:00,38.1,34.3,30.00,SE,132,3.0,0.0,86,0.00,,,0.00,WeatherTracker,2013-03-06 18:22:00,
2013-03-06 13:27:00,38.3,34.5,30.00,ENE,63,4.0,0.0,86,0.00,,,0.00,WeatherTracker,2013-03-06 18:27:00,
2013-03-06 13:32:00,38.4,34.6,29.99,NNE,21,2.0,0.0,86,0.00,,,0.00,WeatherTracker,2013-03-06 18:32:00,
2013-03-06 13:37:00,38.4,34.6,30.00,East,101,2.0,0.0,86,0.00,,,0.00,WeatherTracker,2013-03-06 18:37:00,
2013-03-06 13:42:00,38.3,34.5,29.99,ENE,70,2.0,0.0,86,0.00,,,0.00,WeatherTracker,2013-03-06 18:42:00,
2013-03-06 13:47:00,38.2,34.4,30.00,NNE,32,0.0,0.0,86,0.00,,,0.00,WeatherTracker,2013-03-06 18:47:00,
2013-03-06 13:52:00,37.2,33.1,30.00,ENE,70,4.0,0.0,85,0.00,,,0.00,WeatherTracker,2013-03-06 18:52:00,
2013-03-06 13:58:00,36.6,33.4,30.00,NNE,25,11.0,0.0,88,0.00,,,0.00,WeatherTracker,2013-03-06 18:58:00,
2013-03-06 14:03:00,37.0,34.1,30.00,NE,53,9.0,0.0,89,0.00,,,0.00,WeatherTracker,2013-03-06 19:03:00,
2013-03-06 14:08:00,37.4,33.9,30.00,South,184,2.0,0.0,87,0.00,,,0.00,WeatherTracker,2013-03-06 19:08:00,
2013-03-06 14:13:00,37.5,33.7,30.00,NE,34,4.0,0.0,86,0.00,,,0.00,WeatherTracker,2013-03-06 19:13:00,
2013-03-06 14:18:00,37.6,34.1,30.00,NNE,15,6.0,0.0,87,0.00,,,0.00,WeatherTracker,2013-03-06 19:18:00,
2013-03-06 14:23:00,37.9,34.4,30.00,East,79,10.0,0.0,87,0.00,,,0.00,WeatherTracker,2013-03-06 19:23:00,
2013-03-06 14:28:00,37.5,34.0,30.00,ESE,109,3.0,0.0,87,0.00,,,0.00,WeatherTracker,2013-03-06 19:28:00,
2013-03-06 14:33:00,37.4,33.9,30.00,NE,48,6.0,0.0,87,0.00,,,0.00,WeatherTracker,2013-03-06 19:33:00,
2013-03-06 14:38:00,37.6,34.1,30.00,NNE,32,8.0,0.0,87,0.00,,,0.00,WeatherTracker,2013-03-06 19:38:00,
2013-03-06 14:43:00,37.6,33.8,30.00,NNE,12,6.0,0.0,86,0.00,,,0.00,WeatherTracker,2013-03-06 19:43:00,
2013-03-06 14:48:00,37.2,33.7,30.00,NE,36,6.0,0.0,87,0.00,,,0.00,WeatherTracker,2013-03-06 19:48:00,
2013-03-06 14:53:00,36.3,33.4,30.00,NNE,20,4.0,0.0,89,0.00,,,0.00,WeatherTracker,2013-03-06 19:53:00,
2013-03-06 14:58:00,36.1,33.5,30.00,ENE,57,4.0,0.0,90,0.00,,,0.00,WeatherTracker,2013-03-06 19:58:00,
2013-03-06 15:03:00,36.3,33.7,30.00,ESE,117,5.0,0.0,90,0.00,,,0.00,WeatherTracker,2013-03-06 20:03:00,
2013-03-06 15:08:00,36.1,33.2,30.00,ESE,114,7.0,0.0,89,0.00,,,0.00,WeatherTracker,2013-03-06 20:08:00,
2013-03-06 15:13:00,36.4,33.5,30.00,NNE,28,5.0,0.0,89,0.00,,,0.00,WeatherTracker,2013-03-06 20:13:00,
2013-03-06 15:18:00,36.6,33.7,30.00,NNW,343,6.0,0.0,89,0.00,,,0.00,WeatherTracker,2013-03-06 20:18:00,
2013-03-06 15:23:00,36.8,33.3,30.00,NNE,24,7.0,0.0,87,0.00,,,0.00,WeatherTracker,2013-03-06 20:23:00,
2013-03-06 15:28:00,36.8,33.3,30.00,NNE,26,2.0,0.0,87,0.00,,,0.00,WeatherTracker,2013-03-06 20:28:00,
2013-03-06 15:33:00,36.9,33.4,30.00,North,360,10.0,0.0,87,0.00,,,0.00,WeatherTracker,2013-03-06 20:33:00,
2013-03-06 15:38:00,37.2,33.4,30.00,ENE,74,10.0,0.0,86,0.00,,,0.00,WeatherTracker,2013-03-06 20:38:00,
2013-03-06 15:43:00,37.4,32.7,30.00,ENE,71,1.0,0.0,83,0.00,,,0.00,WeatherTracker,2013-03-06 20:43:00,
2013-03-06 15:48:00,37.4,32.4,30.00,NNE,19,0.0,0.0,82,0.00,,,0.00,WeatherTracker,2013-03-06 20:48:00,
2013-03-06 15:54:00,37.2,32.5,30.00,North,355,5.0,0.0,83,0.00,,,0.00,WeatherTracker,2013-03-06 20:54:00,
2013-03-06 15:59:00,37.0,32.6,30.00,NNE,24,9.0,0.0,84,0.00,,,0.00,WeatherTracker,2013-03-06 20:59:00,
2013-03-06 16:04:00,36.9,32.2,30.00,NE,39,10.0,0.0,83,0.00,,,0.00,WeatherTracker,2013-03-06 21:04:00,
2013-03-06 16:09:00,36.9,32.5,29.99,NNE,22,15.0,0.0,84,0.00,,,0.00,WeatherTracker,2013-03-06 21:09:00,
2013-03-06 16:14:00,36.9,32.8,30.00,ENE,77,9.0,0.0,85,0.00,,,0.00,WeatherTracker,2013-03-06 21:14:00,
2013-03-06 16:19:00,37.0,32.3,30.00,ENE,63,9.0,0.0,83,0.00,,,0.00,WeatherTracker,2013-03-06 21:19:00,
2013-03-06 16:24:00,37.0,32.0,30.00,NE,51,11.0,0.0,82,0.00,,,0.00,WeatherTracker,2013-03-06 21:24:00,
2013-03-06 16:29:00,36.8,32.1,30.00,NNE,23,14.0,0.0,83,0.00,,,0.00,WeatherTracker,2013-03-06 21:29:00,
2013-03-06 16:34:00,36.8,32.1,30.00,NNE,26,1.0,0.0,83,0.00,,,0.00,WeatherTracker,2013-03-06 21:34:00,
2013-03-06 16:39:00,36.6,31.9,30.00,ENE,61,11.0,0.0,83,0.00,,,0.00,WeatherTracker,2013-03-06 21:39:00,
2013-03-06 16:44:00,36.5,31.8,30.00,North,11,8.0,0.0,83,0.00,,,0.00,WeatherTracker,2013-03-06 21:44:00,
2013-03-06 16:49:00,36.4,32.3,30.00,NE,38,12.0,0.0,85,0.00,,,0.00,WeatherTracker,2013-03-06 21:49:00,
2013-03-06 16:54:00,36.0,32.5,30.00,NE,39,4.0,0.0,87,0.00,,,0.00,WeatherTracker,2013-03-06 21:54:00,
2013-03-06 16:59:00,36.0,32.5,30.00,ESE,115,2.0,0.0,87,0.00,,,0.00,WeatherTracker,2013-03-06 21:59:00,
2013-03-06 17:04:00,36.2,32.4,30.01,ESE,115,3.0,0.0,86,0.00,,,0.00,WeatherTracker,2013-03-06 22:04:00,
2013-03-06 17:09:00,36.2,32.4,30.02,ESE,104,2.0,0.0,86,0.00,,,0.00,WeatherTracker,2013-03-06 22:09:00,
2013-03-06 17:14:00,36.3,32.5,30.01,NNW,346,6.0,0.0,86,0.00,,,0.00,WeatherTracker,2013-03-06 22:14:00,
2013-03-06 17:19:00,36.0,32.5,30.01,NE,36,6.0,0.0,87,0.00,,,0.00,WeatherTracker,2013-03-06 22:19:00,
2013-03-06 17:24:00,35.5,32.6,30.01,East,90,8.0,0.0,89,0.00,,,0.00,WeatherTracker,2013-03-06 22:24:00,
2013-03-06 17:29:00,35.4,32.8,30.01,North,360,15.0,0.0,90,0.00,,,0.00,WeatherTracker,2013-03-06 22:29:00,
2013-03-06 17:34:00,35.5,32.9,30.01,NNE,13,6.0,0.0,90,0.00,,,0.00,WeatherTracker,2013-03-06 22:34:00,
2013-03-06 17:39:00,35.5,32.9,30.01,NE,35,13.0,0.0,90,0.00,,,0.00,WeatherTracker,2013-03-06 22:39:00,
2013-03-06 17:44:00,35.6,33.0,30.01,NNE,32,7.0,0.0,90,0.00,,,0.00,WeatherTracker,2013-03-06 22:44:00,
2013-03-06 17:49:00,35.7,33.1,30.01,North,9,10.0,0.0,90,0.00,,,0.00,WeatherTracker,2013-03-06 22:49:00,
2013-03-06 17:55:00,35.7,33.1,30.01,North,10,8.0,0.0,90,0.00,,,0.00,WeatherTracker,2013-03-06 22:55:00,
2013-03-06 18:00:00,35.4,33.0,30.01,ESE,116,8.0,0.0,91,0.00,,,0.00,WeatherTracker,2013-03-06 23:00:00,
2013-03-06 18:05:00,35.3,32.9,30.00,ENE,74,11.0,0.0,91,0.00,,,0.00,WeatherTracker,2013-03-06 23:05:00,
2013-03-06 18:10:00,35.3,32.7,30.00,NNE,33,9.0,0.0,90,0.00,,,0.00,WeatherTracker,2013-03-06 23:10:00,
2013-03-06 18:15:00,35.7,33.1,30.00,NNW,341,4.0,0.0,90,0.00,,,0.00,WeatherTracker,2013-03-06 23:15:00,
2013-03-06 18:20:00,35.9,33.0,30.00,NNE,20,18.0,0.0,89,0.00,,,0.00,WeatherTracker,2013-03-06 23:20:00,
2013-03-06 18:25:00,36.1,33.2,30.00,NE,46,11.0,0.0,89,0.00,,,0.00,WeatherTracker,2013-03-06 23:25:00,
2013-03-06 18:30:00,35.9,33.0,30.00,NE,35,7.0,0.0,89,0.00,,,0.00,WeatherTracker,2013-03-06 23:30:00,
2013-03-06 18:35:00,35.8,33.2,30.00,NNE,13,3.0,0.0,90,0.00,,,0.00,WeatherTracker,2013-03-06 23:35:00,
2013-03-06 18:40:00,35.7,33.1,30.01,ENE,61,5.0,0.0,90,0.00,,,0.00,WeatherTracker,2013-03-06 23:40:00,
2013-03-06 18:45:00,35.5,32.9,30.01,ESE,104,2.0,0.0,90,0.00,,,0.00,WeatherTracker,2013-03-06 23:45:00,
2013-03-06 18:50:00,35.2,32.8,30.01,NNE,28,1.0,0.0,91,0.00,,,0.00,WeatherTracker,2013-03-06 23:50:00,
2013-03-06 18:55:00,35.1,32.7,30.02,North,360,13.0,0.0,91,0.00,,,0.00,WeatherTracker,2013-03-06 23:55:00,
2013-03-06 19:00:00,35.0,32.6,30.01,East,87,7.0,0.0,91,0.00,,,0.00,WeatherTracker,2013-03-07 00:00:00,
2013-03-06 19:05:00,35.1,32.7,30.01,NNE,31,5.0,0.0,91,0.00,,,0.00,WeatherTracker,2013-03-07 00:05:00,
2013-03-06 19:10:00,35.4,33.0,30.01,SE,134,3.0,0.0,91,0.00,,,0.00,WeatherTracker,2013-03-07 00:10:00,
2013-03-06 19:15:00,35.8,33.2,30.01,North,11,7.0,0.0,90,0.00,,,0.00,WeatherTracker,2013-03-07 00:15:00,
2013-03-06 19:20:00,36.1,32.9,30.01,NNE,32,8.0,0.0,88,0.00,,,0.00,WeatherTracker,2013-03-07 00:20:00,
2013-03-06 19:25:00,36.1,32.9,30.01,NNE,12,4.0,0.0,88,0.00,,,0.00,WeatherTracker,2013-03-07 00:25:00,
2013-03-06 19:30:00,36.1,32.9,30.01,North,10,15.0,0.0,88,0.00,,,0.00,WeatherTracker,2013-03-07 00:30:00,
2013-03-06 19:35:00,36.2,32.7,30.02,ENE,68,2.0,0.0,87,0.00,,,0.00,WeatherTracker,2013-03-07 00:35:00,
2013-03-06 19:41:00,36.2,32.4,30.01,East,86,6.0,0.0,86,0.00,,,0.00,WeatherTracker,2013-03-07 00:41:00,
2013-03-06 19:46:00,36.2,32.7,30.01,NNE,24,7.0,0.0,87,0.00,,,0.00,WeatherTracker,2013-03-07 00:46:00,
2013-03-06 19:51:00,36.2,32.7,30.01,NNE,24,3.0,0.0,87,0.00,,,0.00,WeatherTracker,2013-03-07 00:51:00,
2013-03-06 19:56:00,36.3,32.5,30.01,NE,42,6.0,0.0,86,0.00,,,0.00,WeatherTracker,2013-03-07 00:56:00,
2013-03-06 20:01:00,36.4,32.3,30.01,North,5,7.0,0.0,85,0.00,,,0.00,WeatherTracker,2013-03-07 01:01:00,
2013-03-06 20:06:00,36.1,32.6,30.01,South,172,2.0,0.0,87,0.00,,,0.00,WeatherTracker,2013-03-07 01:06:00,
2013-03-06 20:11:00,35.6,32.1,30.01,ESE,114,8.0,0.0,87,0.00,,,0.00,WeatherTracker,2013-03-07 01:11:00,
2013-03-06 20:16:00,35.5,32.3,30.01,ENE,62,2.0,0.0,88,0.00,,,0.00,WeatherTracker,2013-03-07 01:16:00,
2013-03-06 20:21:00,35.5,32.0,30.01,NNE,28,8.0,0.0,87,0.00,,,0.00,WeatherTracker,2013-03-07 01:21:00,
2013-03-06 20:26:00,35.7,32.2,30.01,NE,49,15.0,0.0,87,0.00,,,0.00,WeatherTracker,2013-03-07 01:26:00,
2013-03-06 20:31:00,35.9,32.4,30.01,NE,46,12.0,0.0,87,0.00,,,0.00,WeatherTracker,2013-03-07 01:31:00,
2013-03-06 20:36:00,36.0,31.9,30.01,NNE,13,19.0,0.0,85,0.00,,,0.00,WeatherTracker,2013-03-07 01:36:00,
2013-03-06 20:41:00,35.8,32.0,30.00,NNE,19,6.0,0.0,86,0.00,,,0.00,WeatherTracker,2013-03-07 01:41:00,
2013-03-06 20:46:00,35.5,32.3,30.00,NNE,29,8.0,0.0,88,0.00,,,0.00,WeatherTracker,2013-03-07 01:46:00,
2013-03-06 20:51:00,35.5,32.0,30.00,SE,136,6.0,0.0,87,0.00,,,0.00,WeatherTracker,2013-03-07 01:51:00,
2013-03-06 20:56:00,36.0,31.9,30.00,NE,34,15.0,0.0,85,0.00,,,0.00,WeatherTracker,2013-03-07 01:56:00,
2013-03-06 21:01:00,36.1,32.3,29.99,NE,50,6.0,0.0,86,0.00,,,0.00,WeatherTracker,2013-03-07 02:01:00,
2013-03-06 21:06:00,36.4,32.3,29.99,NNE,19,8.0,0.0,85,0.00,,,0.00,WeatherTracker,2013-03-07 02:06:00,
2013-03-06 21:11:00,36.6,32.2,29.99,NNE,18,5.0,0.0,84,0.00,,,0.00,WeatherTracker,2013-03-07 02:11:00,
2013-03-06 21:16:00,36.6,32.2,29.99,NNE,30,9.0,0.0,84,0.00,,,0.00,WeatherTracker,2013-03-07 02:16:00,
2013-03-06 21:22:00,36.2,31.8,29.99,NE,51,7.0,0.0,84,0.00,,,0.00,WeatherTracker,2013-03-07 02:22:00,
2013-03-06 21:27:00,36.1,31.1,29.99,SSE,157,4.0,0.0,82,0.00,,,0.00,WeatherTracker,2013-03-07 02:27:00,
2013-03-06 21:32:00,36.3,31.3,29.99,North,360,5.0,0.0,82,0.00,,,0.00,WeatherTracker,2013-03-07 02:32:00,
2013-03-06 21:37:00,36.4,31.7,29.99,NW,314,2.0,0.0,83,0.00,,,0.00,WeatherTracker,2013-03-07 02:37:00,
2013-03-06 21:42:00,36.4,31.7,29.99,North,11,13.0,0.0,83,0.00,,,0.00,WeatherTracker,2013-03-07 02:42:00,
2013-03-06 21:47:00,36.4,32.0,30.00,NNE,22,13.0,0.0,84,0.00,,,0.00,WeatherTracker,2013-03-07 02:47:00,
2013-03-06 21:52:00,35.6,32.1,29.99,NNW,347,4.0,0.0,87,0.00,,,0.00,WeatherTracker,2013-03-07 02:52:00,
2013-03-06 21:57:00,35.4,32.2,29.99,SE,125,3.0,0.0,88,0.00,,,0.00,WeatherTracker,2013-03-07 02:57:00,
2013-03-06 22:02:00,35.3,32.1,30.00,East,87,10.0,0.0,88,0.00,,,0.00,WeatherTracker,2013-03-07 03:02:00,
2013-03-06 22:07:00,35.2,32.0,29.99,NNW,338,5.0,0.0,88,0.00,,,0.00,WeatherTracker,2013-03-07 03:07:00,
2013-03-06 22:12:00,35.6,32.1,29.99,ENE,57,8.0,0.0,87,0.00,,,0.00,WeatherTracker,2013-03-07 03:12:00,
2013-03-06 22:17:00,35.9,31.5,29.99,NE,40,4.0,0.0,84,0.00,,,0.00,WeatherTracker,2013-03-07 03:17:00,
2013-03-06 22:22:00,36.2,31.2,29.99,East,99,5.0,0.0,82,0.00,,,0.00,WeatherTracker,2013-03-07 03:22:00,
2013-03-06 22:27:00,36.5,31.5,29.99,NNE,24,15.0,0.0,82,0.00,,,0.00,WeatherTracker,2013-03-07 03:27:00,
2013-03-06 22:32:00,36.5,31.8,29.99,NE,51,5.0,0.0,83,0.00,,,0.00,WeatherTracker,2013-03-07 03:32:00,
2013-03-06 22:37:00,36.4,31.7,29.99,ENE,67,15.0,0.0,83,0.00,,,0.00,WeatherTracker,2013-03-07 03:37:00,
2013-03-06 22:42:00,36.1,31.4,29.99,NNE,26,9.0,0.0,83,0.00,,,0.00,WeatherTracker,2013-03-07 03:42:00,
2013-03-06 22:47:00,36.0,31.6,29.99,NNE,19,5.0,0.0,84,0.00,,,0.00,WeatherTracker,2013-03-07 03:47:00,
2013-03-06 22:52:00,36.1,31.7,29.99,North,355,9.0,0.0,84,0.00,,,0.00,WeatherTracker,2013-03-07 03:52:00,
2013-03-06 22:57:00,36.1,31.7,29.99,NE,48,9.0,0.0,84,0.00,,,0.00,WeatherTracker,2013-03-07 03:57:00,
2013-03-06 23:02:00,35.9,31.5,29.99,North,360,10.0,0.0,84,0.00,,,0.00,WeatherTracker,2013-03-07 04:02:00,
2013-03-06 23:07:00,36.0,31.3,29.99,NNE,22,4.0,0.0,83,0.00,,,0.00,WeatherTracker,2013-03-07 04:07:00,
2013-03-06 23:12:00,36.1,30.8,29.99,ENE,76,12.0,0.0,81,0.00,,,0.00,WeatherTracker,2013-03-07 04:12:00,
2013-03-06 23:17:00,36.4,31.1,29.99,NNE,24,6.0,0.0,81,0.00,,,0.00,WeatherTracker,2013-03-07 04:17:00,
2013-03-06 23:23:00,36.4,31.1,29.99,NNW,334,3.0,0.0,81,0.00,,,0.00,WeatherTracker,2013-03-07 04:23:00,
2013-03-06 23:28:00,36.4,31.1,29.99,North,355,7.0,0.0,81,0.00,,,0.00,WeatherTracker,2013-03-07 04:28:00,
2013-03-06 23:33:00,36.4,30.8,29.98,ENE,77,8.0,0.0,80,0.00,,,0.00,WeatherTracker,2013-03-07 04:33:00,
2013-03-06 23:38:00,36.4,30.8,29.99,NNE,29,9.0,0.0,80,0.00,,,0.00,WeatherTracker,2013-03-07 04:38:00,
2013-03-06 23:43:00,36.2,30.9,29.98,NE,37,11.0,0.0,81,0.00,,,0.00,WeatherTracker,2013-03-07 04:43:00,
2013-03-06 23:48:00,36.1,31.1,29.99,NE,47,0.0,0.0,82,0.00,,,0.00,WeatherTracker,2013-03-07 04:48:00,
2013-03-06 23:53:00,36.0,31.0,29.99,North,9,13.0,0.0,82,0.00,,,0.00,WeatherTracker,2013-03-07 04:53:00,
2013-03-06 23:58:00,36.1,30.8,29.99,NNE,32,18.0,0.0,81,0.00,,,0.00,WeatherTracker,2013-03-07 04:58:00,